Location: Gisborne
(38.6530°S, 178.0040°E)
Time: 13:58:15
(UTC+13:00)

Cosmos 1862 - Pass Details

Date: 24 January 2019
Orbit: 539 x 557 km, 82.5° (Epoch: 13 October)

Event Time Altitude Azimuth Distance (km) Brightness Sun altitude
Rises 20:53:32 0° 167° (SSE) 2,750 7.1 -5.0°
Reaches altitude 10° 20:56:42 10° 140° (SE) 1,841 5.9 -5.5°
Drops below altitude 10° 21:00:54 10° 77° (ENE) 1,822 5.4 -6.2°
Enters shadow 21:01:43 - 68° (ENE) 2,007 5.5 -6.4°
Exits shadow 21:34:14 -65° 9° (N) 12,128 10.0 -11.6°
Maximum altitude 22:35:23 38° 272° (W) 847 4.5 -20.5°
